Terug naar catalogus

MOLNIYA 2-14

ActiefCommunicatieHEO
NORAD 8195·PAYLOAD·🇷🇺 Russia

Gelanceerd Sep 9, 1975 vanaf Plesetsk Cosmodrome

Loading…

Volgende Passages (komende 24 uur)

TLE

VersSource: Space-Track

Epoch: Sep 11, 2026, 01:47 UTC

1 08195U 75081A   26254.07498748  .00001129  00000-0  00000-0 0  9993
2 08195  64.8774  23.8684 6862698 282.1828  14.1013  2.02064947374141

Volg MOLNIYA 2-14 in realtime met AllMySat

Download on the App Store